This is the latest recevied weather packets stored in our database for station/object KI5PFS. If no packets are shown the sender has not sent any weather packets the latest 10 day(s).
| Time | Temp. | Humidity | Pressure | Rain* | Wind** | Luminosity | Snow |
|---|---|---|---|---|---|---|---|
| 1777573203 | 16.11° C | 83% | 1010.4 hPa | 0 mm | - | - | - |
| 1777572604 | 16.11° C | 85% | 1010.3 hPa | 0 mm | - | - | - |
| 1777572004 | 15° C | 87% | 1010.5 hPa | 0 mm | - | - | - |
| 1777571404 | 15° C | 87% | 1011.1 hPa | 0 mm | - | - | - |
| 1777570803 | 15° C | 86% | 1011.2 hPa | 0 mm | - | - | - |
| 1777570204 | 16.11° C | 86% | 1012 hPa | 0 mm | - | - | - |
| 1777569603 | 16.11° C | 85% | 1012.3 hPa | 0 mm | - | - | - |
| 1777569003 | 16.11° C | 85% | 1012.8 hPa | 0 mm | - | - | - |
| 1777568404 | 16.11° C | 84% | 1013.5 hPa | 0 mm | - | - | - |
| 1777567803 | 16.11° C | 82% | 1013.2 hPa | 0 mm | - | - | - |
| 1777567204 | 16.11° C | 82% | 1013.2 hPa | 0 mm | - | - | - |
| 1777566604 | 16.11° C | 83% | 1013.1 hPa | 0 mm | - | - | - |
| 1777566004 | 16.11° C | 83% | 1012.4 hPa | 0 mm | - | - | - |
| 1777565404 | 17.22° C | 81% | 1012.5 hPa | 0 mm | - | - | - |
| 1777564803 | 17.22° C | 78% | 1013.3 hPa | 0 mm | - | - | - |
| 1777564204 | 17.22° C | 77% | 1013.4 hPa | 0 mm | - | - | - |
| 1777563604 | 17.22° C | 76% | 1012.6 hPa | 0 mm | - | - | - |
| 1777563004 | 17.22° C | 77% | 1012.4 hPa | 0 mm | - | - | - |
| 1777562404 | 17.22° C | 77% | 1012.1 hPa | 0 mm | - | - | - |
| 1777561803 | 17.22° C | 77% | 1012 hPa | 0 mm | - | - | - |
| 1777561204 | 17.22° C | 77% | 1011.6 hPa | 0 mm | - | - | - |
| 1777560603 | 17.22° C | 80% | 1011.6 hPa | 0 mm | - | - | - |
| 1777560003 | 17.22° C | 81% | 1011.3 hPa | 0 mm | - | - | - |
| 1777559404 | 16.11° C | 82% | 1011.4 hPa | 0 mm | - | - | - |
| 1777558803 | 16.11° C | 82% | 1011.3 hPa | 0 mm | - | - | - |
* Rain latest hour (hover to see other rain measurements)
** Current wind speed in m/s (hover to see current wind gust speed)